Starlink 32408

operational
NORAD ID: 62054 Int'l Des: 2024-216 Owner: SPXS Country: US Constellation: starlink
LEOCIRCULAR

Starlink 32408について

説明を読み込み中...

リアルタイム位置

3D地球を読み込み中...

次回通過

高度履歴

Altitude vs Time

uPlot chart will show altitude changes over time

軌道要素

1 62054U 24216Y 26063.05445060 .00024214 00000-0 88592-3 0 9991
2 62054 43.0034 288.1595 0002296 261.5220 98.5371 15.27602703 73026
Epoch: Mar 4, 2026 • Age: 21 hours

現在のステータス

高度 494.3 km
速度 7.62 km/s
衛星直下点 -42.35°S, 58.14°E
打ち上げ日 Nov 21, 2024
運用期間 1.2 years
タイプ internet

技術仕様

分類 Payload
質量 730.00 kg
乾燥質量 700.00 kg
総質量 730.00 kg
長さ 0.30 m
直径 4.10 m
スパン 29.00 m
形状 Box + pan
製造者 SPXS
バスタイプ Starlink V2M
フェーズステータス In Orbit
所有者/国 SPXS/US

大規模コンステレーション

Loading constellations...